Location: Borbetomagus
(49.6328°N, 8.3592°E)
Time: 05:46:10
(UTC+00:00)

Cosmos 1697 Rocket - Pass Details

Date: 19 May 2025
Orbit: 830 x 844 km, 71.0° (Epoch: 22 June)

Event Time Altitude Azimuth Distance (km) Brightness Sun altitude
Rises 21:17:28 0° 326° (NNW) 3,407 7.8 -15.0°
Reaches altitude 10° 21:20:02 10° 320° (NW) 2,470 6.5 -15.2°
Maximum altitude 21:25:18 41° 252° (WSW) 1,200 3.6 -15.7°
Enters shadow 21:29:11 17° 190° (S) 1,991 4.2 -16.0°
